Home > Weather > Portland > Past weeks

Flag for USA Past Weather in Portland, Oregon, USA — Yesterday and Last 2 Weeks

Now
64 °F

Passing clouds.


Feels Like: 64 °F
Forecast: 58 / 77 °F
Wind: 15 mph from Northwest

Location: Portland International Airport

Current Time: Jul 30, 2016 at 10:27:20 PM

Latest Report: Jul 30, 2016 at 9:53 PM


Visibility: 10 mi

Pressure: 30.00 "Hg

Humidity: 61%

Dew Point: 50 °F

Location of PortlandLocation

Past Weather in Portland — Graph

°F

Portland Temperature Yesterday

Maximum temperature yesterday: 93 °F (at 3:53 PM)
Minimum temperature yesterday: 66 °F (at 5:53 AM)
Average temperature yesterday: 78 °F

High & Low Weather Summary for the Past Weeks

 TemperatureHumidityPressure
High93 °F (Jul 28, 4:53 PM)93% (Jul 22, 3:53 AM)30.29 "Hg (Jul 22, 3:53 AM)
Low57 °F (Jul 20, 5:53 AM)28% (Jul 28, 6:53 PM)29.85 "Hg (Jul 29, 6:53 PM)
Average70 °F62%30.06 "Hg
* Reported Jul 15 8:53 PM — Jul 30 8:53 PM, Portland, Weather by CustomWeather, © 2016

Note: Actual official high and low records may vary slightly from our data, if they occured in-between our weather recording intervals... More about our weather records

Advertising

Portland Weather History for the Previous 24 Hours

Scroll right to see more
 ConditionsComfort  
Time TempWeatherWind HumidityBarometerVisibility
8:53 PM
Sat, Jul 30
68 °FPassing clouds.16 mph53%29.98 "Hg10 mi
7:53 PM72 °FPassing clouds.20 mph44%29.95 "Hg10 mi
6:53 PM76 °FSunny.17 mph39%29.94 "Hg10 mi
5:53 PM78 °FSunny.14 mph37%29.94 "Hg10 mi
4:53 PM80 °FSunny.15 mph30%29.94 "Hg10 mi
3:53 PM79 °FSunny.10 mph36%29.96 "Hg10 mi
2:53 PM78 °FSunny.7 mph36%29.97 "Hg10 mi
1:53 PM75 °FPassing clouds.8 mph40%29.98 "Hg10 mi
12:53 PM73 °FPassing clouds.6 mph43%29.99 "Hg10 mi
11:53 AM69 °FPassing clouds.6 mph51%30.01 "Hg10 mi
10:53 AM68 °FScattered clouds.5 mph53%30.01 "Hg10 mi
9:53 AM66 °FScattered clouds.No wind56%30.01 "Hg10 mi
8:53 AM63 °FScattered clouds.7 mph63%30.01 "Hg10 mi
7:53 AM62 °FScattered clouds.5 mph67%30.00 "Hg10 mi
6:53 AM59 °FScattered clouds.6 mph75%30.00 "Hg10 mi
5:53 AM59 °FPassing clouds.3 mph78%29.98 "Hg10 mi
4:53 AM59 °FPassing clouds.5 mph78%29.96 "Hg10 mi
3:53 AM60 °FPassing clouds.5 mph78%29.95 "Hg10 mi
2:53 AM61 °FClear.6 mph75%29.95 "Hg10 mi
1:53 AM63 °FClear.5 mph73%29.94 "Hg10 mi
12:53 AM65 °FClear.7 mph68%29.93 "Hg10 mi
11:53 PM
Fri, Jul 29
67 °FClear.15 mph66%29.92 "Hg10 mi
10:53 PM72 °FClear.12 mph57%29.91 "Hg10 mi
Weather by CustomWeather, © 2016

See weather overviewHow to use our weather pages